Time,TemperatureF,DewpointF,PressureIn,WindDirection,WindDirectionDegrees,WindSpeedMPH,WindSpeedGustMPH,Humidity,HourlyPrecipIn,Conditions,Clouds,dailyrainin,SoftwareType,DateUTC
2013-02-24 00:02:00,47.3,31.1,30.07,SE,136,0.0,0.0,53,0.00,,,0.00,meteohub,2013-02-24 08:02:00,
2013-02-24 00:22:00,46.8,30.9,30.07,SE,136,0.0,0.0,54,0.00,,,0.00,meteohub,2013-02-24 08:22:00,
2013-02-24 00:42:00,46.4,30.7,30.10,SE,136,0.0,0.0,54,0.00,,,0.00,meteohub,2013-02-24 08:42:00,
2013-02-24 01:02:00,45.5,29.8,30.07,SE,136,0.0,0.0,54,0.00,,,0.00,meteohub,2013-02-24 09:02:00,
2013-02-24 01:22:00,45.1,30.0,30.07,SE,136,0.0,0.0,55,0.00,,,0.00,meteohub,2013-02-24 09:22:00,
2013-02-24 01:42:00,45.9,30.6,30.07,East,82,0.0,3.0,55,0.00,,,0.00,meteohub,2013-02-24 09:42:00,
2013-02-24 02:02:00,45.1,30.0,30.07,East,82,0.0,0.0,55,0.00,,,0.00,meteohub,2013-02-24 10:02:00,
2013-02-24 02:22:00,44.2,29.1,30.07,NNE,12,0.0,0.0,55,0.00,,,0.00,meteohub,2013-02-24 10:22:00,
2013-02-24 02:42:00,44.1,28.9,30.07,NE,42,0.0,4.0,55,0.00,,,0.00,meteohub,2013-02-24 10:42:00,
2013-02-24 03:02:00,43.3,28.2,30.07,NE,42,0.0,0.0,55,0.00,,,0.00,meteohub,2013-02-24 11:02:00,
2013-02-24 03:22:00,43.2,28.6,30.07,NE,42,0.0,0.0,56,0.00,,,0.00,meteohub,2013-02-24 11:22:00,
2013-02-24 03:42:00,43.2,28.6,30.07,NE,42,0.0,0.0,56,0.00,,,0.00,meteohub,2013-02-24 11:42:00,
2013-02-24 04:02:00,43.3,28.8,30.10,NE,41,0.0,0.0,56,0.00,,,0.00,meteohub,2013-02-24 12:02:00,
2013-02-24 04:22:00,43.7,28.6,30.10,NE,55,3.0,4.0,55,0.00,,,0.00,meteohub,2013-02-24 12:22:00,
2013-02-24 04:42:00,45.3,29.7,30.10,East,80,5.0,5.0,54,0.00,,,0.00,meteohub,2013-02-24 12:42:00,
2013-02-24 05:02:00,46.0,27.9,30.10,ENE,68,4.0,6.0,49,0.00,,,0.00,meteohub,2013-02-24 13:02:00,
2013-02-24 05:22:00,46.4,26.8,30.10,ENE,62,7.0,8.0,46,0.00,,,0.00,meteohub,2013-02-24 13:22:00,
2013-02-24 05:42:00,47.5,23.2,30.10,ENE,76,8.0,9.0,38,0.00,,,0.00,meteohub,2013-02-24 13:42:00,
2013-02-24 06:02:00,48.2,23.2,30.13,East,83,8.0,11.0,37,0.00,,,0.00,meteohub,2013-02-24 14:02:00,
2013-02-24 06:22:00,49.6,24.4,30.13,NE,51,6.0,12.0,37,0.00,,,0.00,meteohub,2013-02-24 14:22:00,
2013-02-24 06:42:00,50.5,24.6,30.13,ENE,70,9.0,11.0,36,0.00,,,0.00,meteohub,2013-02-24 14:42:00,
2013-02-24 07:02:00,52.0,25.9,30.13,ENE,71,5.0,18.0,36,0.00,,,0.00,meteohub,2013-02-24 15:02:00,
2013-02-24 07:22:00,53.2,27.0,30.16,ENE,72,13.0,17.0,36,0.00,,,0.00,meteohub,2013-02-24 15:22:00,
2013-02-24 07:42:00,54.3,27.9,30.16,ENE,65,8.0,15.0,36,0.00,,,0.00,meteohub,2013-02-24 15:42:00,
2013-02-24 08:02:00,55.6,28.4,30.16,ENE,59,9.0,15.0,35,0.00,,,0.00,meteohub,2013-02-24 16:02:00,
2013-02-24 08:22:00,56.8,29.5,30.16,ENE,65,12.0,20.0,35,0.00,,,0.00,meteohub,2013-02-24 16:22:00,
2013-02-24 08:42:00,58.1,30.6,30.16,ENE,64,11.0,18.0,35,0.00,,,0.00,meteohub,2013-02-24 16:42:00,
2013-02-24 09:02:00,59.2,30.7,30.19,East,101,9.0,17.0,34,0.00,,,0.00,meteohub,2013-02-24 17:02:00,
2013-02-24 09:22:00,60.4,32.0,30.19,ENE,70,15.0,16.0,34,0.00,,,0.00,meteohub,2013-02-24 17:22:00,
2013-02-24 09:42:00,61.5,32.9,30.19,ENE,78,11.0,15.0,34,0.00,,,0.00,meteohub,2013-02-24 17:42:00,
2013-02-24 10:02:00,62.8,34.0,30.19,ENE,67,8.0,17.0,34,0.00,,,0.00,meteohub,2013-02-24 18:02:00,
2013-02-24 10:22:00,64.0,35.1,30.19,ENE,67,8.0,15.0,34,0.00,,,0.00,meteohub,2013-02-24 18:22:00,
2013-02-24 10:42:00,65.1,35.2,30.19,ENE,62,8.0,12.0,33,0.00,,,0.00,meteohub,2013-02-24 18:42:00,
2013-02-24 11:02:00,66.2,36.3,30.19,ENE,64,11.0,11.0,33,0.00,,,0.00,meteohub,2013-02-24 19:02:00,
2013-02-24 11:22:00,67.1,37.0,30.19,ENE,77,8.0,13.0,33,0.00,,,0.00,meteohub,2013-02-24 19:22:00,
2013-02-24 11:42:00,67.8,37.6,30.19,NE,49,6.0,13.0,33,0.00,,,0.00,meteohub,2013-02-24 19:42:00,
2013-02-24 12:02:00,68.7,38.5,30.19,East,96,5.0,15.0,33,0.00,,,0.00,meteohub,2013-02-24 20:02:00,
2013-02-24 12:22:00,70.2,38.8,30.19,ENE,75,11.0,12.0,32,0.00,,,0.00,meteohub,2013-02-24 20:22:00,
2013-02-24 12:42:00,71.2,39.9,30.19,NE,50,8.0,11.0,32,0.00,,,0.00,meteohub,2013-02-24 20:42:00,
2013-02-24 13:02:00,71.8,40.3,30.19,ENE,68,14.0,14.0,32,0.00,,,0.00,meteohub,2013-02-24 21:02:00,
2013-02-24 13:22:00,72.0,40.5,30.16,ENE,57,6.0,12.0,32,0.00,,,0.00,meteohub,2013-02-24 21:22:00,
2013-02-24 13:42:00,73.0,41.4,30.16,NE,50,12.0,13.0,32,0.00,,,0.00,meteohub,2013-02-24 21:42:00,
2013-02-24 14:02:00,73.8,41.2,30.16,North,349,5.0,11.0,31,0.00,,,0.00,meteohub,2013-02-24 22:02:00,
2013-02-24 14:22:00,73.9,41.4,30.16,East,91,9.0,16.0,31,0.00,,,0.00,meteohub,2013-02-24 22:22:00,
2013-02-24 14:42:00,74.3,41.7,30.16,SSW,207,8.0,10.0,31,0.00,,,0.00,meteohub,2013-02-24 22:42:00,
2013-02-24 15:02:00,69.3,38.8,30.16,WSW,254,4.0,11.0,33,0.00,,,0.00,meteohub,2013-02-24 23:02:00,
2013-02-24 15:22:00,68.4,38.1,30.16,West,263,10.0,13.0,33,0.00,,,0.00,meteohub,2013-02-24 23:22:00,
2013-02-24 15:42:00,68.4,38.1,30.16,West,266,8.0,11.0,33,0.00,,,0.00,meteohub,2013-02-24 23:42:00,
2013-02-24 16:02:00,67.1,37.0,30.16,WNW,283,9.0,15.0,33,0.00,,,0.00,meteohub,2013-02-25 00:02:00,
2013-02-24 16:22:00,67.1,37.0,30.16,WNW,292,8.0,11.0,33,0.00,,,0.00,meteohub,2013-02-25 00:22:00,
2013-02-24 16:42:00,66.4,36.3,30.16,WNW,286,8.0,10.0,33,0.00,,,0.00,meteohub,2013-02-25 00:42:00,
2013-02-24 17:02:00,65.5,35.6,30.16,WSW,258,6.0,8.0,33,0.00,,,0.00,meteohub,2013-02-25 01:02:00,
2013-02-24 17:22:00,63.0,34.2,30.19,West,275,6.0,9.0,34,0.00,,,0.00,meteohub,2013-02-25 01:22:00,
2013-02-24 17:42:00,61.3,32.7,30.19,WNW,289,8.0,8.0,34,0.00,,,0.00,meteohub,2013-02-25 01:42:00,
2013-02-24 18:02:00,60.4,32.0,30.19,West,270,5.0,10.0,34,0.00,,,0.00,meteohub,2013-02-25 02:02:00,
2013-02-24 18:22:00,59.4,30.9,30.19,North,2,4.0,8.0,34,0.00,,,0.00,meteohub,2013-02-25 02:22:00,
2013-02-24 18:42:00,56.7,29.3,30.19,North,2,0.0,4.0,35,0.00,,,0.00,meteohub,2013-02-25 02:42:00,
2013-02-24 19:02:00,55.8,28.6,30.22,North,0,5.0,6.0,35,0.00,,,0.00,meteohub,2013-02-25 03:02:00,
2013-02-24 19:22:00,55.0,28.6,30.22,North,0,3.0,8.0,36,0.00,,,0.00,meteohub,2013-02-25 03:22:00,
2013-02-24 19:42:00,53.6,27.3,30.22,NNW,334,3.0,6.0,36,0.00,,,0.00,meteohub,2013-02-25 03:42:00,
2013-02-24 20:02:00,52.5,26.2,30.25,North,357,0.0,4.0,36,0.00,,,0.00,meteohub,2013-02-25 04:02:00,
2013-02-24 20:22:00,51.4,25.3,30.25,NE,52,0.0,4.0,36,0.00,,,0.00,meteohub,2013-02-25 04:22:00,
2013-02-24 20:42:00,51.3,25.2,30.25,NE,47,3.0,4.0,36,0.00,,,0.00,meteohub,2013-02-25 04:42:00,
2013-02-24 21:02:00,51.1,25.0,30.25,NE,47,0.0,3.0,36,0.00,,,0.00,meteohub,2013-02-25 05:02:00,
2013-02-24 21:22:00,49.6,24.4,30.28,NE,47,0.0,0.0,37,0.00,,,0.00,meteohub,2013-02-25 05:22:00,
2013-02-24 21:42:00,48.4,23.4,30.28,NE,47,0.0,0.0,37,0.00,,,0.00,meteohub,2013-02-25 05:42:00,
2013-02-24 22:02:00,47.3,22.3,30.28,NE,46,0.0,0.0,37,0.00,,,0.00,meteohub,2013-02-25 06:02:00,
2013-02-24 22:22:00,46.4,21.6,30.28,NE,46,0.0,0.0,37,0.00,,,0.00,meteohub,2013-02-25 06:22:00,
2013-02-24 22:42:00,46.0,21.9,30.28,NE,46,0.0,0.0,38,0.00,,,0.00,meteohub,2013-02-25 06:42:00,
2013-02-24 23:02:00,45.1,21.0,30.28,NE,47,0.0,0.0,38,0.00,,,0.00,meteohub,2013-02-25 07:02:00,
2013-02-24 23:22:00,44.4,20.5,30.28,NE,46,0.0,0.0,38,0.00,,,0.00,meteohub,2013-02-25 07:22:00,
2013-02-24 23:42:00,44.1,20.1,30.28,NE,46,0.0,0.0,38,0.00,,,0.00,meteohub,2013-02-25 07:42:00,